Location: Willingham
(52.3167°N, 0.0667°E)
Time: 05:02:35
(UTC+00:00)

ALOS 2 - Pass Details

Date: 19 May 2025
Orbit: 630 x 632 km, 97.9° (Epoch: 13 June)

Event Time Altitude Azimuth Distance (km) Brightness Sun altitude
Exits shadow 22:18:51 16° 115° (ESE) 1,659 4.3 -14.7°
Maximum altitude 22:21:35 30° 63° (ENE) 1,150 4.0 -14.8°
Drops below altitude 10° 22:25:25 10° 3° (N) 2,028 6.2 -15.0°
Sets 22:27:49 0° 353° (N) 2,940 7.6 -15.2°
